This demonstration page uses our WeatherBlox Daily Observations layout. Learn more.

Left ArrowRight Arrow

31.84235, -102.49876

Hourly Observations for May 17, 2022

Temp ( °F °C ) Dew Point ( °F °C ) Humidity (%) Winds ( mph kmh ) Pressure ( in mb ) Visibility ( mi km ) Precip ( " mm )
12:53 am 00:53 Clear 85 29.4 48 8.9 28 28 S 18 30 29.75 1008 10 16 0.00 0.00
1:53 am 01:53 Clear 83 28.3 52 11.1 34 34 S 21 33 29.74 1007 10 16 0.00 0.00
2:53 am 02:53 Clear 83 28.3 52 11.1 34 34 S 15 24 29.74 1007 10 16 0.00 0.00
3:53 am 03:53 Mostly Clear 83 28.3 51 10.6 33 33 S 17 28 29.72 1007 10 16 0.00 0.00
4:53 am 04:53 Clear 82 27.8 50 10 33 33 S 21 33 29.71 1006 8 13 0.00 0.00
5:53 am 05:53 Clear 81 27.2 51 10.6 35 35 S 16 26 29.72 1006 10 16 0.00 0.00
6:53 am 06:53 Sunny 80 26.7 51 10.6 37 37 S 7 11 29.75 1007 10 16 0.00 0.00
7:53 am 07:53 Sunny 80 26.7 53 11.7 39 39 SSE 9 15 29.78 1008 10 16 0.00 0.00
8:53 am 08:53 Sunny 78 25.6 56 13.3 47 47 SSE 17 28 29.78 1008 10 16 0.00 0.00
9:53 am 09:53 Sunny 82 27.8 56 13.3 41 41 S 18 30 29.79 1009 10 16 0.00 0.00
10:53 am 10:53 Sunny 87 30.6 54 12.2 32 32 S 21 33 29.77 1008 10 16 0.00 0.00
11:53 am 11:53 Sunny 92 33.3 52 11.1 26 26 S 22 35 29.75 1007 10 16 0.00 0.00
12:53 pm 12:53 Sunny 95 35 49 9.4 21 21 SSW 20 31 29.73 1007 10 16 0.00 0.00
1:53 pm 13:53 Sunny 99 37.2 40 4.4 13 13 SW 14 22 29.70 1006 10 16 0.00 0.00
2:53 pm 14:53 Sunny 102 38.9 36 2.2 10 10 SSW 17 28 29.68 1005 10 16 0.00 0.00
3:53 pm 15:53 Sunny 102 38.9 28 -2.2 7 7 WSW 10 17 29.66 1004 10 16 0.00 0.00
4:53 pm 16:53 Sunny 103 39.4 28 -2.2 7 7 SSW 14 22 29.63 1004 10 16 0.00 0.00
5:53 pm 17:53 Sunny 102 38.9 27 -2.8 7 7 SW 15 24 29.62 1003 10 16 0.00 0.00
6:53 pm 18:53 Sunny 99 37.2 41 5 14 14 S 13 20 29.62 1003 10 16 0.00 0.00
7:53 pm 19:53 Sunny 96 35.6 48 8.9 19 19 S 22 35 29.63 1003 10 16 0.00 0.00
8:53 pm 20:53 Clear 93 33.9 49 9.4 22 22 S 20 31 29.67 1005 10 16 0.00 0.00
9:53 pm 21:53 Clear 90 32.2 49 9.4 24 24 S 16 26 29.69 1006 10 16 0.00 0.00
10:53 pm 22:53 Clear 88 31.1 47 8.3 24 24 S 16 26 29.71 1006 10 16 0.00 0.00
11:53 pm 23:53 Clear 86 30 44 6.7 23 23 SSW 15 24 29.73 1007 10 16 0.00 0.00

Powered by AerisWeather